This is the latest recevied weather packets stored in our database for station/object KG5WBN. If no packets are shown the sender has not sent any weather packets the latest 10 day(s).
| Time | Temp. | Humidity | Pressure | Rain* | Wind** | Luminosity | Snow |
|---|---|---|---|---|---|---|---|
| 1778002146 | 28.33° C | 38% | 1012.9 hPa | 0 mm | - | 343 W/m² | - |
| 1778001844 | 27.78° C | 38% | 1012.9 hPa | 0 mm | - | 356 W/m² | - |
| 1778001543 | 28.33° C | 39% | 1012.9 hPa | 0 mm | - | 339 W/m² | - |
| 1778001240 | 27.78° C | 38% | 1012.9 hPa | 0 mm | - | 337 W/m² | - |
| 1778000936 | 28.33° C | 38% | 1012.9 hPa | 0 mm | - | 264 W/m² | - |
| 1778000634 | 28.89° C | 36% | 1012.5 hPa | 0 mm | - | 362 W/m² | - |
| 1778000329 | 28.33° C | 37% | 1012.5 hPa | 0 mm | - | 355 W/m² | - |
| 1778000025 | 28.33° C | 37% | 1012.5 hPa | 0 mm | - | 310 W/m² | - |
| 1777999721 | 28.33° C | 38% | 1012.9 hPa | 0 mm | - | 198 W/m² | - |
| 1777999418 | 28.33° C | 38% | 1012.9 hPa | 0 mm | - | 342 W/m² | - |
| 1777999115 | 27.78° C | 40% | 1012.5 hPa | 0 mm | - | 314 W/m² | - |
| 1777998814 | 27.78° C | 38% | 1012.5 hPa | 0 mm | - | 243 W/m² | - |
| 1777998512 | 27.78° C | 36% | 1012.5 hPa | 0 mm | - | 209 W/m² | - |
| 1777998208 | 28.33° C | 36% | 1012.5 hPa | 0 mm | - | 334 W/m² | - |
| 1777997905 | 28.33° C | 36% | 1012.9 hPa | 0 mm | - | 357 W/m² | - |
| 1777997603 | 27.78° C | 37% | 1012.5 hPa | 0 mm | - | 329 W/m² | - |
| 1777997300 | 27.22° C | 37% | 1012.5 hPa | 0 mm | - | 291 W/m² | - |
| 1777996998 | 27.78° C | 37% | 1012.5 hPa | 0 mm | - | 274 W/m² | - |
| 1777996694 | 28.33° C | 36% | 1012.9 hPa | 0 mm | - | 327 W/m² | - |
| 1777996389 | 27.78° C | 36% | 1012.9 hPa | 0 mm | - | 325 W/m² | - |
| 1777996086 | 27.22° C | 36% | 1012.9 hPa | 0 mm | - | 311 W/m² | - |
| 1777995782 | 27.22° C | 39% | 1012.9 hPa | 0 mm | - | 306 W/m² | - |
| 1777995478 | 26.67° C | 39% | 1012.9 hPa | 0 mm | - | 312 W/m² | - |
| 1777995176 | 26.67° C | 39% | 1013.2 hPa | 0 mm | - | 304 W/m² | - |
| 1777994873 | 27.22° C | 38% | 1013.2 hPa | 0 mm | - | 294 W/m² | - |
* Rain latest hour (hover to see other rain measurements)
** Current wind speed in m/s (hover to see current wind gust speed)